カタログに戻る

ELISA E24

運用中軍事SSO
NORAD 38008·PAYLOAD·🇫🇷 France

打ち上げ Dec 17, 2011 から Guiana Space Centre

Loading…

次のパス (今後24時間)

TLE

最新Source: Space-Track

元期: Sep 14, 2026, 13:43 UTC

1 38008U 11076B   26257.57184352  .00000356  00000-0  41914-4 0  9998
2 38008  97.6513 275.4250 0001673  70.2100 289.9299 14.90481983792153

AllMySatでELISA E24をリアルタイム追跡

Download on the App Store